TimeEST,TemperatureF,Dew PointF,Humidity,Sea Level PressureIn,VisibilityMPH,Wind Direction,Wind SpeedMPH,Gust SpeedMPH,PrecipitationIn,Events,Conditions,WindDirDegrees,DateUTC
12:56 AM,32.0,26.1,79,30.24,10.0,NNE,9.2,-,N/A,,Mostly Cloudy,20,2014-02-04 05:56:00
1:56 AM,30.9,25.0,79,30.26,10.0,North,4.6,-,N/A,,Clear,10,2014-02-04 06:56:00
2:56 AM,28.9,25.0,85,30.27,10.0,North,4.6,-,N/A,,Clear,10,2014-02-04 07:56:00
3:56 AM,28.0,24.1,85,30.30,10.0,North,4.6,-,N/A,,Partly Cloudy,360,2014-02-04 08:56:00
4:56 AM,25.0,21.9,88,30.31,6.0,Calm,Calm,-,N/A,,Clear,0,2014-02-04 09:56:00
5:56 AM,28.0,25.0,88,30.33,10.0,NNW,4.6,-,N/A,,Clear,330,2014-02-04 10:56:00
6:56 AM,27.0,24.1,89,30.36,10.0,NW,4.6,-,N/A,,Clear,320,2014-02-04 11:56:00
7:56 AM,28.9,25.0,85,30.39,9.0,NW,4.6,-,N/A,,Clear,310,2014-02-04 12:56:00
8:56 AM,30.9,26.1,82,30.40,9.0,North,6.9,-,N/A,,Clear,350,2014-02-04 13:56:00
9:56 AM,32.0,27.0,82,30.41,10.0,NNW,8.1,-,N/A,,Clear,340,2014-02-04 14:56:00
10:56 AM,33.1,27.0,78,30.43,10.0,NW,8.1,-,N/A,,Scattered Clouds,310,2014-02-04 15:56:00
11:56 AM,33.1,27.0,78,30.41,10.0,NNW,8.1,-,N/A,,Clear,340,2014-02-04 16:56:00
12:56 PM,34.0,26.1,73,30.40,10.0,North,6.9,-,N/A,,Clear,350,2014-02-04 17:56:00
1:56 PM,36.0,25.0,64,30.38,10.0,Calm,Calm,-,N/A,,Clear,0,2014-02-04 18:56:00
2:56 PM,34.0,25.0,70,30.38,10.0,Calm,Calm,-,N/A,,Partly Cloudy,0,2014-02-04 19:56:00
3:56 PM,34.0,26.1,73,30.38,10.0,Calm,Calm,-,N/A,,Scattered Clouds,0,2014-02-04 20:56:00
4:03 PM,34.0,26.1,73,30.37,10.0,Calm,Calm,-,N/A,,Mostly Cloudy,0,2014-02-04 21:03:00
4:10 PM,33.1,27.0,78,30.36,10.0,Calm,Calm,-,N/A,,Scattered Clouds,0,2014-02-04 21:10:00
4:56 PM,32.0,23.0,69,30.36,10.0,South,3.5,-,N/A,,Clear,180,2014-02-04 21:56:00
5:56 PM,28.0,25.0,88,30.40,9.0,WSW,4.6,-,N/A,,Clear,240,2014-02-04 22:56:00
6:56 PM,27.0,26.1,96,30.42,10.0,Calm,Calm,-,N/A,,Clear,0,2014-02-04 23:56:00
7:56 PM,26.1,25.0,96,30.40,10.0,Calm,Calm,-,N/A,,Clear,0,2014-02-05 00:56:00
8:56 PM,25.0,23.0,92,30.39,10.0,Calm,Calm,-,N/A,,Clear,0,2014-02-05 01:56:00
9:56 PM,26.1,23.0,88,30.39,10.0,Calm,Calm,-,N/A,,Clear,0,2014-02-05 02:56:00
10:56 PM,24.1,23.0,96,30.34,5.0,ENE,5.8,-,N/A,,Clear,60,2014-02-05 03:56:00
11:56 PM,25.0,21.9,88,30.36,7.0,Calm,Calm,-,N/A,,Clear,0,2014-02-05 04:56:00